Regional Weather Roundup
Issued by NWS Sioux Falls, SD

Home | Current Version | Previous Version | Text Only | Print | Product List | Glossary On
Versions: 1 2 3 4 5 6 7 8 9 10 11 12 13 14 15 16 17 18 19 20 21 22 23 24 25 26 27 28 29 30 31 32 33 34 35 36 37 38 39 40 41 42 43 44 45 46 47 48 49 50
000
ASUS43 KFSD 031610
RWRFSD

WEATHER ROUNDUP FOR SE SOUTH DAKOTA/SW MINNESOTA/NW IOWA
NATIONAL WEATHER SERVICE SIOUX FALLS SD
1100 AM CDT THU SEP 03 2015

NOTE: "FAIR" INDICATES FEW OR NO CLOUDS BELOW 12,000 FEET WITH NO
SIGNIFICANT WEATHER AND OR OBSTRUCTIONS TO VISIBILITY.


SDZ038>040-050-052>070-031700-
SOUTHEAST SOUTH DAKOTA

CITY           SKY/WX    TMP DP  RH WIND       PRES   REMARKS
BROOKINGS      SUNNY     79  70  73 S10       29.86S
CHAMBERLAIN    SUNNY     81  70  70 SE5       29.79S
HURON          SUNNY     79  70  74 S12       29.79S
MADISON        FAIR      75  75 100 SE10      29.85S
MITCHELL       SUNNY     80  71  74 S8        29.80S
SIOUX FALLS    SUNNY     78  70  76 SE8       29.84F
WINNER         FAIR      93  60  33 SE10      29.79S
YANKTON        SUNNY     79  70  73 SE8       29.81S
$$

MNZ071-072-080-081-089-090-097-098-031700-
SOUTHWEST MINNESOTA

CITY           SKY/WX    TMP DP  RH WIND       PRES   REMARKS
FAIRMONT       SUNNY     79  70  73 SE7       29.89S
JACKSON        SUNNY     81  72  74 SE6       29.90S
LUVERNE        SUNNY     79  70  73 SE7       29.87S
MARSHALL       SUNNY     79  70  73 SE9       29.87S
MONTEVIDEO     PTSUNNY   79  73  83 S9        29.88S
PIPESTONE      SUNNY     79  70  73 SE7       29.87S
REDWOOD FALLS  SUNNY     78  72  81 E6        29.87S
TRACY          SUNNY     80  73  77 SE7       29.88R
WINDOM         SUNNY     81  70  69 CALM      29.89S
WORTHINGTON    SUNNY     79  70  73 S5        29.89R
$$

IAZ001>003-012>014-020>022-031-032-NEZ013-014-SDZ071-031700-
NORTHWEST IOWA

CITY           SKY/WX    TMP DP  RH WIND       PRES   REMARKS
CHEROKEE       SUNNY     80  72  75 S12       29.87S
DENISON        SUNNY     79  72  78 S8        29.87S
ESTHERVILLE    SUNNY     78  72  81 S8        29.89S
LE MARS        SUNNY     81  72  74 SE9       29.86S
ORANGE CITY    SUNNY     79  72  78 S9        29.87R
SHELDON        SUNNY     79  72  78 S9        29.86S
SIOUX CITY     SUNNY     80  70  71 S10       29.84S
SPENCER        SUNNY     81  70  69 S7        29.89S
STORM LAKE     SUNNY     79  72  78 S12       29.90R
$$

ABBREVIATIONS USED IN REMARKS
   TC - TEMPERATURE IN CELSIUS
  WCI - WIND CHILL INDEX
   HX - HEAT INDEX
  VSB - VISIBILITY




USA.gov is the U.S. government's official web portal to all federal, state and local government web resources and services.